Wind_Speed
30 30 28 27 28 27 26 26 26 25 24 23 21 19 16 17 16 16 16 16 15 14 14 14 16 18 21 22 23 23 23 23 22 22 23 22 20 19 18 18 19 21 22 24 25 27 27 27 27 26 26 25 26 26 26 27 27 28 28 29 29 29 29 30 30 30 30 31 31
27 26 24 25 26 26 26 26 25 24 22 20 18 16 14 14 14 15 14 15 15 15 15 16 18 20 21 21 20 20 19 19 20 21 21 19 18 17 18 19 20 21 23 24 26 26 26 26 26 26 26 26 27 27 28 27 27 28 28 28 28 28 28 28 29 29 29 29 29
23 21 20 20 22 23 23 21 19 18 17 15 14 14 13 13 13 13 13 13 14 16 18 19 19 19 19 19 19 19 19 20 20 20 19 18 17 18 19 20 21 22 24 25 25 25 26 26 26 27 27 28 28 28 28 28 27 27 28 28 27 27 27 27 27 27 27 27 27
19 17 16 16 16 17 16 15 15 14 13 13 13 12 12 12 12 12 12 14 15 16 18 19 19 18 18 18 19 19 20 21 20 19 18 18 18 18 19 20 21 23 24 25 25 26 26 27 27 27 28 28 28 28 28 28 27 27 27 27 27 27 27 27 27 27 26 27 27
16 14 13 13 12 13 14 14 14 13 13 13 13 12 12 13 13 14 15 16 18 19 20 20 19 18 18 18 20 21 22 21 20 18 18 18 18 18 18 19 21 23 24 25 26 26 27 27 27 27 28 28 28 28 28 27 27 27 27 27 27 27 27 27 27 27 27 27 27
12 11 11 12 12 13 14 14 13 13 14 14 14 14 15 15 16 18 19 20 20 20 19 18 18 18 19 21 22 23 22 21 19 17 17 17 17 18 19 20 22 24 25 26 27 27 27 27 27 27 27 27 28 28 27 27 27 28 28 28 28 27 27 27 27 27 27 28 28
13 12 12 12 13 13 14 14 14 15 15 15 15 16 17 18 18 19 19 19 19 18 17 18 19 21 23 24 24 22 20 18 17 16 16 17 18 19 20 22 24 25 26 27 27 27 27 27 28 28 28 28 28 28 28 28 28 28 28 29 29 28 28 28 28 28 28 29 29
17 15 14 14 14 14 14 15 15 15 15 15 16 16 17 17 17 17 17 17 17 18 19 21 23 24 24 23 21 18 16 15 15 16 17 18 19 21 22 24 25 26 27 28 28 28 28 28 28 29 29 29 29 29 29 29 29 29 29 29 29 29 29 29 29 30 30 31 31
18 16 15 15 15 15 15 16 16 15 15 15 15 15 16 16 16 16 16 17 18 20 22 23 23 22 20 17 15 14 14 15 16 17 18 19 21 22 24 25 26 27 27 27 28 28 28 28 29 29 29 29 30 30 30 29 29 29 29 30 30 30 30 30 31 31 32 32 33
16 15 15 15 16 16 16 16 16 16 15 15 15 15 15 16 17 17 18 20 21 21 22 21 19 16 14 13 13 13 14 15 16 17 19 21 22 24 25 25 26 27 27 27 27 28 28 28 29 29 29 29 29 29 29 29 29 29 30 30 30 31 31 31 32 32 32 33 34
15 14 15 15 16 16 16 16 16 16 16 15 16 16 16 17 18 19 19 20 20 19 18 16 13 12 11 12 13 14 15 16 17 19 21 23 24 25 25 26 26 27 27 27 28 28 28 29 29 30 30 30 30 30 30 30 30 30 31 31 31 31 32 32 32 32 33 33 34
14 14 14 15 15 15 16 15 16 16 16 16 16 16 17 18 18 18 19 18 16 15 13 11 10 10 11 12 13 14 16 17 19 21 23 24 25 25 26 26 26 27 28 28 28 29 29 30 30 30 31 31 31 31 31 31 31 31 32 32 32 32 32 32 32 32 32 33 33
15 15 14 14 15 15 15 15 15 15 15 16 16 17 17 17 17 16 15 13 11 10 9 9 10 10 12 13 14 16 18 20 21 23 24 25 25 26 26 27 27 28 29 29 29 29 30 30 30 31 31 31 31 31 31 31 32 32 32 32 32 32 32 32 32 32 32 32 32
14 14 14 15 15 15 15 15 15 15 15 16 16 16 16 15 14 12 10 9 8 8 9 10 10 11 13 15 16 18 20 22 23 24 25 25 26 26 27 28 29 29 30 30 30 30 30 31 31 31 31 32 32 32 32 32 32 32 32 33 33 33 33 33 33 32 32 32 32
14 14 15 15 15 15 15 15 15 15 15 14 14 13 12 10 9 8 7 7 8 9 10 11 12 13 15 16 18 20 21 22 23 24 25 25 26 27 28 29 30 30 31 31 31 31 31 32 32 32 32 33 33 33 33 33 33 33 33 33 33 33 33 33 33 33 33 33 33
15 15 14 14 14 14 14 14 14 14 13 12 11 9 8 7 6 6 7 8 9 10 11 12 14 15 17 18 19 21 22 23 23 24 25 26 27 28 29 30 30 31 31 32 32 32 33 33 33 33 33 33 33 34 34 33 33 33 34 34 34 34 34 34 34 33 33 33 33
14 14 14 14 14 14 13 12 12 11 10 9 8 7 7 7 7 7 8 9 10 11 13 14 15 16 18 19 20 21 22 23 24 25 26 27 28 29 30 31 31 32 32 32 33 33 34 34 34 33 33 34 34 34 34 34 34 34 34 34 34 34 34 34 34 34 33 33 32
13 13 13 13 12 12 11 10 9 9 8 7 8 8 9 9 9 9 9 10 12 13 14 15 16 17 18 19 20 21 23 24 25 26 28 28 29 30 31 31 32 32 33 33 34 34 34 34 33 33 33 33 33 33 33 33 33 33 33 33 34 34 34 34 33 33 32 32 31
12 12 12 12 12 11 11 11 10 10 9 10 10 10 10 11 11 12 12 13 13 14 15 16 17 18 19 20 21 22 24 25 27 28 29 30 30 31 32 32 33 33 33 33 33 33 33 32 32 31 31 31 31 31 31 32 32 32 32 33 33 33 33 32 32 31 31 31 31
13 13 14 14 14 13 13 13 12 11 11 11 12 13 14 15 16 16 15 14 14 15 15 16 18 19 20 21 23 24 25 27 28 29 30 30 31 32 32 32 32 32 32 31 31 31 31 30 30 30 30 31 31 31 32 32 32 32 33 33 32 32 32 31 31 31 31 32 33
15 15 16 17 17 16 15 14 13 13 13 14 16 18 19 19 18 15 14 14 14 15 16 17 18 19 21 23 24 26 27 28 29 29 30 30 30 30 30 30 30 30 30 29 29 29 29 30 30 30 31 31 31 32 32 32 32 33 33 32 32 32 32 32 32 32 33 33 35
19 19 19 19 18 17 16 16 15 15 16 19 21 21 19 16 13 12 12 13 14 15 16 18 19 21 23 24 26 27 28 28 28 28 29 28 28 28 28 28 28 28 28 29 29 29 30 30 30 31 31 31 31 32 32 32 32 32 33 33 33 33 33 33 33 33 34 35 36
23 23 23 22 20 19 18 17 18 20 22 22 20 16 12 10 10 11 12 14 15 16 18 19 21 23 24 26 27 27 28 28 28 27 27 27 26 26 27 27 27 28 28 29 29 29 30 30 31 31 31 31 31 31 32 32 32 33 33 33 34 34 34 34 35 35 36 37 38
27 25 23 22 21 20 21 22 23 24 22 18 13 10 9 9 10 12 13 15 16 17 19 21 23 25 26 26 27 27 27 27 27 26 26 26 26 26 26 27 27 28 28 29 29 30 30 30 30 31 31 31 31 31 31 32 33 33 34 35 35 36 36 37 37 38 38 39 39
27 24 22 21 22 23 24 24 22 18 14 11 9 9 9 10 12 14 15 17 18 19 22 24 25 26 27 27 27 27 26 26 26 26 26 26 26 27 27 27 28 28 28 29 29 29 29 29 29 29 30 30 30 31 32 32 33 34 35 36 36 37 38 39 39 39 39 39 39
24 23 22 23 23 22 20 16 13 11 9 9 9 10 11 13 15 16 18 19 20 22 24 26 27 27 27 27 27 26 26 26 26 26 26 26 27 27 27 27 28 28 28 29 29 29 29 29 28 28 29 30 31 32 33 34 34 35 36 37 38 39 40 40 40 40 40 39 39
23 23 22 21 18 14 11 9 8 9 9 10 11 13 14 16 18 19 20 20 21 23 26 26 27 27 27 26 26 26 26 25 25 25 26 26 27 27 27 28 28 28 28 29 29 29 29 29 29 29 30 30 31 33 34 35 36 36 37 38 39 39 39 40 40 41 41 40 41
23 21 18 14 10 9 8 9 9 11 12 13 14 16 17 19 20 20 21 21 23 25 26 27 27 27 26 26 26 25 25 25 25 26 26 26 27 27 28 28 28 29 29 29 30 30 30 30 30 31 31 32 33 34 35 36 37 38 39 39 39 40 40 40 42 42 42 41 40
20 16 12 9 9 9 10 11 12 13 15 16 17 19 20 21 21 21 21 22 24 25 26 27 27 27 26 26 26 25 25 26 26 26 27 27 28 28 29 29 29 30 30 30 30 31 31 31 32 32 33 34 35 36 38 39 40 40 41 41 41 41 40 40 40 39 37 35 32
16 13 11 10 11 12 13 14 15 16 17 18 19 20 21 22 22 21 21 23 24 26 27 27 27 27 26 26 26 26 26 26 27 27 28 28 29 29 30 30 30 30 30 31 31 31 31 32 33 33 34 35 36 37 39 40 42 42 42 41 40 39 37 35 33 31 29 28 27
13 12 12 13 14 15 16 17 18 18 19 20 20 21 22 22 22 21 22 24 25 27 27 27 26 26 26 26 26 26 27 27 28 28 28 29 29 30 30 30 30 30 31 31 31 31 32 33 33 34 35 36 37 39 40 41 41 40 38 35 33 31 29 28 27 27 27 27 27
13 14 14 15 16 17 18 19 19 19 20 20 21 22 22 22 21 21 22 24 26 27 27 26 26 26 26 26 27 27 27 28 28 29 29 29 30 30 30 30 30 30 31 31 31 32 33 34 35 36 37 38 39 40 40 39 36 32 29 27 26 26 26 26 27 27 28 28 28
14 15 16 17 18 18 19 19 19 19 20 21 21 21 21 20 20 21 23 25 26 26 26 25 26 26 26 27 27 28 28 29 29 29 29 29 29 30 30 30 30 30 31 31 32 33 34 35 36 38 39 40 40 38 35 31 27 24 23 23 23 24 25 26 28 29 29 30 29
16 16 17 18 18 19 19 18 18 19 19 20 20 19 19 19 20 22 24 26 26 25 25 25 25 26 26 27 27 28 28 29 29 29 29 29 29 30 30 30 31 31 31 32 33 34 35 37 39 40 40 39 35 31 27 23 21 21 22 23 24 25 26 28 29 30 31 31 30
16 17 17 18 18 18 17 17 17 17 18 18 18 17 17 18 20 23 25 26 25 24 24 25 25 26 27 27 27 28 28 29 29 29 29 29 29 30 30 31 31 32 32 33 34 36 37 39 40 39 37 32 27 23 20 20 21 22 23 24 25 27 28 30 31 32 31 31 30
16 17 16 16 15 15 15 14 15 15 15 15 15 16 17 20 23 25 26 24 23 23 24 25 26 26 27 27 27 28 28 28 29 29 29 29 29 30 31 31 32 33 33 34 36 37 39 39 38 34 29 24 20 19 19 21 23 24 25 26 28 29 31 32 32 32 31 29 28
15 14 14 13 13 13 13 13 14 14 14 14 15 17 20 24 26 26 25 23 23 24 25 26 26 27 27 27 28 28 28 28 29 29 29 29 30 30 31 32 33 34 35 36 37 39 39 37 32 27 22 19 18 19 21 23 25 26 27 28 30 31 31 31 30 30 29 27 27
12 12 12 13 13 14 14 15 15 15 15 16 18 21 25 27 27 25 23 22 23 24 25 26 26 27 27 27 28 28 28 28 28 28 29 29 30 30 31 32 34 35 36 37 38 38 35 31 26 21 18 18 19 21 23 25 26 27 29 30 30 29 28 27 26 25 24 23 22
12 13 15 16 16 17 17 17 17 16 17 19 23 26 27 26 24 23 22 23 24 25 25 26 26 27 27 28 28 28 28 28 28 28 29 30 30 31 32 33 34 36 37 37 37 34 30 25 20 18 17 19 21 23 24 26 28 29 29 28 26 24 22 21 19 19 19 20 21
16 17 17 18 18 18 18 18 19 20 22 25 26 26 25 23 22 22 23 24 24 25 25 26 27 27 27 28 28 28 28 28 28 29 29 30 30 31 32 32 34 36 37 37 34 29 24 20 18 18 18 20 22 24 26 27 29 28 27 24 22 21 20 20 21 22 23 26 28
17 17 17 17 17 18 20 21 23 24 25 25 23 22 21 21 21 22 23 24 25 25 26 26 27 27 27 27 27 27 28 29 29 30 30 30 30 30 31 32 34 36 36 34 30 25 21 19 19 19 20 22 24 26 27 28 28 27 25 24 24 25 26 28 29 30 32 33 35
Wind_Direction
298 291 279 257 240 229 222 218 217 216 215 216 218 217 218 223 224 225 226 226 229 234 243 252 260 267 272 274 276 277 278 281 284 287 289 289 288 286 284 283 283 284 284 284 283 283 284 285 288 289 290 290 289 288 287 286 285 285 284 283 283 282 282 282 281 281 281 280 279
299 287 269 248 235 227 222 221 221 221 220 219 220 220 221 222 223 225 226 228 236 245 254 262 268 271 274 274 275 277 281 284 287 288 289 288 287 286 286 286 285 285 284 283 283 285 288 291 293 293 293 293 292 291 290 290 290 289 289 288 287 287 286 285 285 284 284 283 282
294 280 261 242 232 227 224 222 220 221 222 221 222 223 224 224 225 227 231 236 245 254 261 265 269 270 271 273 276 280 284 287 288 289 289 288 288 288 288 287 286 285 283 283 285 289 293 295 295 295 294 294 294 294 294 294 295 294 293 293 292 292 291 290 289 288 287 285 284
290 276 259 242 230 224 222 220 220 221 221 222 224 226 228 231 234 239 244 251 257 262 266 268 269 270 271 275 279 282 285 287 288 288 288 289 289 289 288 287 286 284 283 286 290 293 295 296 296 296 296 296 296 296 296 297 297 297 296 295 295 294 293 292 291 290 288 287 286
286 272 255 239 230 228 229 230 229 228 228 230 233 236 240 245 250 256 260 263 267 269 269 269 269 271 274 278 281 283 285 287 288 288 289 289 288 289 289 289 286 285 287 290 294 296 297 298 297 297 297 297 296 297 297 298 298 297 296 296 295 294 293 292 291 290 289 287 286
282 269 258 250 245 245 246 245 244 243 243 244 246 248 251 256 261 264 265 266 267 266 266 268 272 276 280 283 285 287 288 289 290 290 289 288 288 289 290 290 288 288 291 294 296 297 298 298 297 297 297 297 297 297 297 298 297 297 296 295 294 293 292 291 290 289 288 287 286
280 274 269 265 263 261 260 258 255 253 252 252 252 253 255 259 261 262 262 262 263 265 270 276 282 286 288 290 291 292 293 294 293 291 289 289 290 291 292 291 289 290 292 295 296 296 297 297 296 296 296 296 296 296 296 296 296 295 294 293 293 292 291 289 289 288 287 286 285
283 282 279 277 274 271 267 263 259 256 254 253 252 251 253 257 259 260 262 265 269 276 282 287 291 293 294 295 297 298 298 296 293 291 290 291 291 292 291 289 289 290 292 294 295 295 296 295 295 294 294 294 294 294 294 294 293 292 291 291 290 289 289 288 287 286 286 285 284
287 286 285 282 280 276 272 267 261 256 253 252 250 249 252 257 262 267 272 277 282 287 291 293 295 297 299 300 301 299 297 294 293 292 292 292 292 291 290 289 290 292 293 294 295 295 295 294 294 293 293 293 293 293 293 293 292 290 289 289 288 287 287 286 285 285 285 284 284
284 282 281 279 277 275 272 269 264 261 258 256 255 256 260 266 272 278 283 287 290 293 296 297 299 300 301 300 298 296 294 294 293 293 292 292 291 289 288 290 292 293 294 295 295 295 294 294 293 293 293 293 293 293 293 292 291 290 289 288 287 287 286 285 285 284 284 284 284
275 272 271 270 270 271 270 269 269 269 270 268 269 271 275 279 282 286 289 292 295 298 300 301 302 301 298 296 295 294 294 293 293 293 292 291 289 288 290 292 293 294 294 295 295 294 293 293 292 292 292 292 292 292 291 291 290 289 289 288 287 287 286 285 285 284 284 284 284
266 264 264 265 268 271 273 274 276 278 280 282 284 286 288 289 290 292 295 298 301 303 304 303 301 298 296 295 295 294 294 293 293 292 291 290 289 290 291 292 293 294 294 294 294 293 292 291 291 290 290 290 290 289 289 289 289 288 287 287 286 286 285 285 285 284 284 284 284
266 266 266 268 272 274 276 278 280 283 287 290 292 293 293 294 295 298 300 303 305 305 302 300 297 296 295 295 295 294 294 293 293 292 291 290 290 291 292 292 293 294 294 294 294 294 293 292 291 290 290 289 289 288 288 288 288 287 287 286 286 285 285 285 285 284 284 284 284
273 275 275 276 276 277 278 280 283 287 290 293 294 294 295 297 300 303 305 305 303 300 298 297 295 295 295 295 295 294 294 294 293 292 291 290 290 291 292 293 294 294 295 295 295 294 293 292 291 290 290 289 289 288 288 287 287 287 286 286 286 286 285 284 284 284 284 284 283
278 279 280 280 279 280 281 284 287 289 292 294 294 295 296 299 302 303 301 297 295 293 293 294 294 295 295 295 295 295 295 295 294 293 292 292 292 292 293 293 294 295 296 296 295 294 293 292 291 290 290 289 288 288 288 287 286 286 286 286 285 285 285 284 284 284 283 283 283
280 281 281 281 281 283 285 287 289 291 292 292 292 292 291 291 289 287 286 286 288 290 292 294 296 297 297 297 296 296 296 295 294 294 294 293 294 294 294 295 295 295 295 295 294 294 293 292 291 290 290 289 288 288 288 287 287 286 286 285 285 285 284 284 284 284 284 283 283
282 282 281 281 282 283 284 286 287 287 285 283 280 275 272 269 269 272 276 283 288 293 296 298 299 299 299 298 297 297 297 296 296 295 295 295 295 295 295 295 295 295 294 294 293 293 292 292 292 291 290 289 289 289 288 288 287 287 287 286 286 285 285 285 285 285 285 284 284
282 280 278 277 276 275 275 274 272 270 268 266 263 261 259 260 263 270 278 287 294 298 300 300 300 299 299 299 299 298 298 297 297 296 296 296 296 295 295 294 294 294 294 293 293 293 293 293 293 292 292 292 291 291 291 291 290 290 289 289 288 288 287 287 287 286 285 284 283
274 271 268 265 262 261 260 259 259 259 259 259 258 256 256 258 264 273 283 292 297 300 300 300 299 299 299 300 300 299 299 298 297 297 297 296 296 295 295 294 294 294 294 294 294 294 294 294 295 295 295 295 295 295 294 294 294 293 292 292 291 290 289 288 287 286 284 282 280
263 259 257 256 255 254 254 254 254 254 253 253 252 255 261 268 276 283 290 296 298 298 299 299 299 299 300 300 300 299 299 298 297 297 296 296 295 295 295 295 295 295 295 295 295 296 296 297 297 298 298 297 297 297 296 296 295 294 293 292 291 290 288 287 285 283 281 279 278
263 258 255 256 255 253 251 249 247 246 249 256 264 272 278 283 288 292 295 296 297 297 297 297 298 299 299 300 299 299 298 298 297 296 296 296 296 296 296 297 297 297 297 298 298 298 299 299 299 299 299 298 298 297 297 296 295 294 292 291 289 288 286 285 283 281 280 279 278
269 264 258 254 251 248 245 244 247 255 267 277 285 289 292 295 297 296 295 294 295 294 294 295 296 298 299 300 299 299 299 299 298 298 298 298 298 299 300 300 300 300 300 300 300 301 301 301 300 300 300 299 298 298 297 296 294 293 291 289 288 286 285 283 282 281 281 280 280
274 267 258 252 246 244 246 253 264 276 285 291 294 297 301 302 298 294 293 291 289 288 290 293 297 300 301 302 302 302 302 302 302 302 302 302 303 303 303 303 302 302 301 301 301 301 301 301 301 301 300 300 299 298 296 295 293 291 289 288 287 286 285 284 283 283 282 282 282
276 265 256 249 248 252 261 271 281 287 292 296 300 305 305 299 295 291 286 283 282 285 291 298 302 305 306 307 307 306 306 305 306 306 306 307 306 306 305 304 303 302 302 302 301 302 301 301 301 301 300 300 298 296 294 292 290 289 289 288 288 287 287 286 286 285 285 285 285
274 264 256 256 262 270 278 285 290 294 298 303 306 303 297 291 285 279 277 278 282 291 300 306 310 311 311 310 310 309 309 308 308 308 308 308 307 306 305 304 303 302 302 302 301 301 301 301 300 300 299 297 295 292 291 289 289 288 288 288 288 288 288 288 287 287 287 286 285
272 268 267 271 278 285 291 295 298 301 301 300 297 291 283 277 272 271 274 280 290 301 309 313 314 314 313 312 311 310 310 310 310 309 308 307 307 305 304 303 303 302 302 301 301 301 300 300 299 297 295 293 291 290 289 288 288 288 288 288 288 288 289 289 288 288 287 286 286
278 278 280 284 290 296 299 299 296 292 290 287 282 276 271 268 268 271 276 286 298 309 315 317 317 315 313 312 311 311 311 311 311 309 308 307 306 305 304 304 303 302 301 301 300 300 299 298 296 294 293 291 290 289 289 289 289 289 289 288 289 289 289 288 288 287 287 286 286
284 285 287 291 295 294 291 287 283 280 278 275 271 268 267 267 269 273 280 292 305 315 319 319 318 315 314 312 312 312 312 312 311 310 308 307 306 305 304 303 302 301 301 300 299 299 298 296 294 293 291 290 289 289 289 289 289 289 289 290 289 289 288 287 287 287 287 288 288
283 283 283 281 279 277 275 274 271 270 269 268 268 267 268 269 271 275 284 298 310 318 320 320 318 315 313 312 313 313 313 312 311 310 309 307 306 305 304 303 302 301 300 299 299 298 297 295 293 292 290 289 289 288 288 288 289 290 290 290 290 289 288 288 288 289 290 292 293
278 273 268 265 265 266 265 264 264 265 266 267 268 269 269 270 272 279 290 303 313 319 320 319 317 315 313 313 313 313 312 311 310 309 308 307 305 304 303 302 301 301 300 300 299 298 296 295 293 292 291 290 290 290 290 290 291 291 291 291 290 290 290 291 292 293 295 296 297
268 262 260 262 263 265 265 266 266 267 268 269 269 269 269 271 275 283 295 306 315 319 321 319 316 314 313 313 313 312 311 310 309 308 307 306 305 304 303 302 302 301 301 300 299 298 296 295 294 294 293 293 293 293 293 294 294 293 293 292 292 292 293 294 295 295 296 296 296
262 260 263 267 271 274 275 274 273 271 270 269 268 268 269 273 279 288 299 310 317 320 320 317 315 313 313 313 312 311 309 308 307 306 306 305 305 304 303 303 302 302 301 300 299 297 296 296 295 296 296 296 297 297 296 296 295 294 293 292 292 293 293 293 293 293 294 294 295
268 268 272 276 279 282 281 279 275 271 269 267 266 268 272 278 284 293 304 314 319 320 318 315 312 311 311 310 309 308 308 307 306 306 306 305 305 304 304 303 302 301 301 299 298 297 297 297 298 298 299 300 299 298 297 295 294 293 293 292 292 291 291 292 292 293 294 295 295
279 280 282 284 285 284 282 277 272 268 265 265 266 271 276 283 290 301 311 318 321 320 316 312 309 308 308 307 307 307 306 306 307 306 306 306 305 304 303 303 302 301 300 299 298 298 298 299 300 301 302 301 300 298 296 295 295 296 296 296 294 294 294 296 297 297 297 297 297
286 288 288 288 287 283 278 271 266 264 264 266 270 275 280 288 299 310 318 323 322 317 312 308 307 306 306 306 306 306 307 307 307 307 306 306 305 304 303 302 301 300 299 299 299 300 301 302 303 303 303 301 300 299 299 301 303 303 303 301 300 301 302 303 302 301 300 298 297
290 290 289 286 282 276 269 264 261 262 265 269 273 278 287 298 310 318 324 325 320 313 308 306 306 307 307 307 307 307 308 307 307 307 306 306 305 304 303 302 300 300 300 300 301 302 304 305 305 304 303 302 302 305 307 309 309 308 307 305 305 306 307 306 304 302 300 297 295
289 286 281 276 270 264 260 258 258 260 264 268 276 287 300 311 318 324 325 322 314 309 307 307 308 308 308 308 309 308 308 308 307 306 306 305 305 304 303 301 300 300 300 301 303 305 306 306 305 304 304 306 310 312 313 313 312 310 309 309 309 309 309 307 305 302 299 297 294
279 273 268 264 261 258 256 255 256 258 263 272 286 300 310 317 322 324 321 316 310 308 308 308 309 309 309 309 309 308 308 307 307 306 306 305 304 303 302 301 300 300 301 303 305 307 308 307 306 306 309 313 315 315 314 313 312 311 311 311 311 310 309 307 305 302 300 297 295
269 267 266 264 260 257 255 255 258 264 275 288 300 308 314 319 321 320 316 312 309 309 309 309 309 309 310 310 309 309 308 307 306 306 305 305 304 303 302 301 300 301 303 305 307 309 309 309 310 312 315 317 317 316 314 313 312 312 311 311 311 310 309 308 306 302 299 296 294
269 268 266 263 260 259 261 266 273 283 292 301 307 312 316 318 317 315 312 311 310 310 310 309 309 309 310 310 309 308 308 306 306 305 305 304 303 302 301 300 301 302 304 307 309 312 313 315 317 319 320 320 318 316 314 313 311 309 308 307 306 306 304 302 300 297 295 294 294
268 266 265 267 271 277 283 290 295 299 303 307 311 314 316 316 314 312 312 311 311 310 310 309 309 310 310 310 309 307 306 306 305 305 304 304 303 301 301 300 301 303 306 309 313 316 319 322 323 323 322 320 318 315 313 311 308 305 302 300 300 301 301 301 300 299 299 299 299
Height
1486 1485 1484 1483 1483 1482 1482 1482 1481 1481 1481 1482 1483 1484 1485 1486 1486 1486 1487 1487 1488 1488 1489 1490 1490 1490 1490 1491 1491 1491 1491 1491 1490 1490 1490 1490 1489 1489 1489 1489 1489 1489 1489 1488 1488 1487 1486 1486 1485 1484 1483 1482 1481 1481 1480 1479 1479 1478 1477 1476 1476 1475 1474 1473 1473 1472 1472 1471 1471
1484 1483 1483 1482 1481 1481 1481 1480 1481 1481 1481 1482 1483 1484 1484 1484 1485 1485 1486 1486 1487 1488 1488 1489 1489 1489 1490 1490 1489 1489 1489 1489 1489 1489 1488 1488 1488 1488 1488 1488 1488 1487 1487 1486 1486 1485 1485 1484 1483 1482 1481 1480 1479 1478 1478 1477 1476 1476 1475 1474 1473 1472 1472 1471 1471 1470 1470 1469 1469
1483 1483 1482 1482 1481 1481 1481 1481 1481 1482 1482 1483 1483 1483 1483 1483 1484 1484 1485 1486 1486 1487 1487 1487 1488 1488 1488 1488 1487 1487 1487 1487 1487 1487 1487 1486 1486 1486 1486 1486 1486 1486 1485 1485 1484 1484 1483 1482 1481 1480 1479 1478 1477 1476 1475 1475 1474 1473 1472 1471 1471 1470 1470 1469 1468 1468 1468 1467 1467
1483 1483 1482 1482 1482 1482 1482 1482 1482 1482 1482 1482 1482 1482 1482 1483 1484 1484 1485 1485 1486 1486 1486 1486 1486 1486 1486 1486 1486 1486 1486 1486 1486 1485 1485 1485 1485 1485 1485 1485 1485 1484 1483 1483 1482 1482 1481 1480 1479 1478 1477 1476 1475 1474 1473 1472 1472 1471 1470 1469 1469 1468 1467 1467 1466 1466 1466 1465 1465
1483 1483 1483 1483 1483 1482 1482 1482 1482 1482 1482 1482 1482 1482 1482 1483 1484 1484 1484 1485 1485 1485 1485 1485 1485 1485 1485 1485 1484 1484 1484 1484 1484 1483 1483 1483 1483 1483 1483 1483 1483 1482 1482 1481 1481 1480 1479 1478 1477 1476 1475 1474 1473 1472 1471 1471 1470 1469 1468 1467 1467 1466 1466 1465 1465 1464 1464 1463 1463
1484 1483 1483 1483 1483 1482 1482 1482 1482 1482 1482 1482 1482 1482 1482 1483 1483 1484 1484 1484 1484 1484 1484 1484 1484 1483 1483 1483 1483 1482 1482 1482 1481 1482 1482 1482 1482 1482 1482 1481 1481 1481 1480 1479 1479 1478 1477 1476 1475 1474 1473 1472 1471 1470 1469 1469 1468 1467 1466 1465 1465 1464 1464 1463 1463 1462 1462 1461 1461
1483 1483 1483 1483 1482 1482 1482 1482 1482 1481 1481 1481 1481 1481 1482 1482 1482 1482 1482 1482 1482 1482 1482 1482 1482 1482 1481 1481 1481 1480 1480 1480 1480 1480 1481 1481 1481 1481 1480 1480 1479 1479 1478 1477 1477 1476 1475 1474 1473 1472 1471 1470 1469 1468 1467 1467 1466 1465 1464 1463 1463 1462 1462 1461 1461 1461 1460 1459 1459
1482 1482 1482 1482 1482 1481 1481 1481 1481 1481 1481 1481 1481 1481 1480 1481 1481 1481 1481 1481 1481 1481 1481 1481 1480 1480 1479 1479 1478 1478 1478 1478 1479 1479 1479 1479 1479 1479 1478 1478 1477 1477 1476 1476 1475 1474 1473 1472 1471 1470 1469 1468 1467 1466 1465 1465 1464 1463 1462 1461 1461 1460 1460 1460 1459 1459 1458 1457 1457
1482 1481 1481 1481 1481 1481 1480 1480 1480 1480 1480 1480 1479 1479 1479 1479 1479 1479 1479 1479 1479 1479 1479 1479 1478 1478 1477 1477 1477 1477 1477 1478 1478 1478 1478 1478 1478 1477 1476 1476 1475 1475 1474 1473 1472 1472 1471 1470 1469 1467 1466 1466 1465 1464 1463 1463 1462 1461 1460 1459 1459 1458 1458 1457 1457 1456 1456 1455 1455
1481 1481 1480 1480 1480 1480 1479 1479 1479 1479 1479 1479 1479 1478 1478 1478 1478 1478 1478 1478 1478 1477 1477 1477 1476 1476 1476 1476 1476 1476 1477 1477 1477 1477 1477 1476 1476 1475 1475 1474 1473 1472 1472 1471 1471 1470 1469 1468 1466 1466 1465 1464 1463 1462 1461 1461 1460 1459 1458 1457 1457 1456 1456 1455 1455 1454 1454 1453 1452
1480 1479 1479 1479 1479 1478 1478 1478 1478 1478 1478 1478 1478 1478 1477 1477 1477 1477 1477 1476 1476 1476 1476 1475 1475 1475 1475 1475 1476 1476 1476 1476 1476 1476 1476 1475 1474 1474 1473 1472 1471 1471 1470 1469 1468 1468 1467 1466 1465 1464 1463 1462 1461 1460 1460 1459 1458 1457 1456 1456 1455 1454 1453 1453 1452 1452 1451 1451 1450
1478 1478 1478 1478 1477 1477 1477 1477 1477 1477 1477 1477 1477 1476 1476 1476 1476 1476 1475 1475 1474 1474 1474 1474 1474 1475 1475 1475 1475 1475 1475 1475 1475 1474 1474 1473 1472 1472 1471 1470 1469 1469 1468 1467 1466 1466 1465 1464 1463 1461 1461 1460 1459 1458 1458 1457 1456 1455 1454 1453 1453 1452 1451 1451 1450 1450 1449 1448 1448
1477 1477 1477 1477 1477 1476 1476 1476 1476 1476 1476 1476 1476 1475 1475 1475 1474 1474 1474 1473 1473 1473 1474 1474 1474 1474 1474 1474 1474 1474 1474 1474 1473 1473 1472 1471 1471 1470 1469 1468 1467 1466 1466 1465 1464 1463 1462 1461 1461 1459 1458 1457 1457 1456 1456 1455 1454 1453 1452 1451 1450 1450 1449 1448 1447 1447 1446 1446 1445
1476 1476 1476 1476 1476 1476 1476 1476 1475 1475 1475 1475 1474 1474 1474 1473 1473 1473 1473 1473 1473 1473 1473 1474 1474 1474 1474 1473 1473 1473 1473 1472 1471 1471 1470 1469 1469 1468 1467 1466 1465 1464 1463 1463 1462 1461 1460 1459 1458 1457 1456 1455 1454 1454 1453 1452 1451 1451 1450 1449 1448 1447 1446 1446 1445 1445 1444 1443 1443
1476 1476 1475 1475 1475 1475 1475 1475 1474 1474 1474 1474 1473 1473 1473 1472 1472 1472 1472 1472 1473 1473 1473 1473 1473 1472 1472 1472 1472 1471 1471 1471 1470 1469 1468 1467 1466 1466 1465 1464 1463 1462 1461 1460 1459 1459 1458 1457 1456 1455 1454 1453 1452 1451 1450 1450 1449 1448 1447 1446 1445 1444 1444 1443 1442 1442 1441 1441 1440
1475 1474 1474 1474 1474 1474 1474 1474 1473 1473 1473 1473 1472 1472 1472 1472 1472 1472 1472 1472 1472 1472 1471 1471 1471 1471 1471 1471 1470 1470 1469 1469 1468 1467 1466 1465 1464 1463 1462 1461 1461 1460 1459 1458 1457 1456 1455 1455 1454 1453 1451 1451 1449 1448 1448 1447 1446 1445 1444 1443 1443 1442 1441 1440 1440 1439 1439 1438 1437
1474 1473 1473 1473 1473 1473 1473 1473 1472 1472 1472 1472 1471 1471 1471 1471 1471 1471 1470 1470 1470 1470 1470 1470 1470 1470 1469 1469 1469 1468 1467 1467 1466 1465 1464 1463 1462 1461 1460 1459 1458 1457 1457 1456 1455 1454 1453 1452 1451 1450 1449 1448 1447 1446 1445 1444 1443 1442 1441 1441 1440 1439 1438 1438 1437 1436 1436 1436 1435
1473 1473 1473 1472 1472 1472 1472 1472 1471 1471 1471 1471 1470 1470 1469 1469 1469 1469 1469 1469 1469 1469 1469 1468 1468 1468 1468 1467 1467 1466 1466 1465 1464 1463 1462 1461 1460 1459 1458 1457 1456 1455 1455 1453 1452 1451 1450 1449 1448 1448 1446 1446 1445 1444 1443 1442 1441 1440 1439 1438 1437 1436 1436 1435 1435 1434 1434 1433 1432
1473 1473 1472 1472 1472 1471 1471 1471 1470 1470 1469 1469 1468 1468 1467 1467 1467 1467 1467 1467 1467 1467 1467 1467 1467 1466 1466 1466 1465 1465 1464 1463 1462 1461 1460 1459 1458 1457 1456 1455 1454 1453 1452 1451 1450 1449 1448 1447 1446 1445 1444 1443 1442 1441 1440 1439 1438 1437 1436 1436 1435 1434 1433 1433 1432 1431 1431 1430 1430
1472 1472 1471 1471 1471 1470 1470 1469 1468 1468 1467 1466 1466 1466 1466 1466 1466 1466 1466 1466 1466 1466 1466 1466 1465 1465 1465 1464 1463 1463 1462 1461 1460 1459 1458 1457 1456 1455 1454 1453 1451 1451 1450 1449 1447 1446 1445 1444 1443 1442 1441 1441 1440 1439 1437 1436 1436 1435 1434 1433 1432 1431 1431 1430 1429 1429 1428 1427 1427
1471 1470 1470 1469 1469 1468 1467 1467 1466 1465 1465 1464 1464 1465 1465 1465 1465 1465 1465 1465 1465 1465 1465 1465 1464 1464 1463 1462 1461 1461 1460 1459 1458 1457 1456 1455 1454 1452 1451 1450 1449 1448 1447 1446 1445 1444 1443 1442 1441 1440 1439 1438 1437 1436 1435 1434 1433 1432 1431 1430 1429 1429 1428 1427 1427 1426 1425 1425 1424
1469 1469 1468 1467 1466 1466 1465 1464 1464 1464 1464 1464 1464 1464 1464 1464 1464 1464 1464 1464 1464 1464 1464 1463 1463 1462 1461 1461 1460 1459 1458 1456 1456 1455 1453 1452 1451 1450 1449 1448 1447 1446 1445 1443 1442 1441 1441 1440 1439 1438 1437 1436 1435 1434 1433 1432 1431 1430 1429 1427 1427 1426 1425 1424 1424 1423 1422 1421 1421
1467 1466 1466 1465 1464 1463 1463 1463 1463 1463 1463 1463 1463 1462 1462 1462 1462 1463 1463 1463 1463 1462 1462 1462 1461 1461 1460 1459 1458 1456 1455 1454 1453 1452 1451 1450 1449 1447 1446 1446 1445 1443 1442 1441 1440 1439 1438 1437 1436 1436 1435 1434 1432 1431 1431 1429 1428 1427 1426 1425 1424 1423 1422 1421 1421 1420 1419 1418 1418
1465 1464 1463 1463 1462 1462 1462 1462 1462 1462 1462 1462 1461 1461 1461 1461 1461 1462 1462 1462 1461 1461 1461 1460 1459 1459 1457 1456 1455 1454 1453 1451 1450 1449 1448 1447 1446 1445 1444 1443 1442 1441 1440 1439 1438 1437 1436 1436 1434 1433 1432 1431 1430 1429 1428 1427 1426 1425 1423 1422 1421 1420 1419 1418 1417 1417 1416 1415 1415
1463 1462 1462 1462 1461 1461 1461 1461 1461 1461 1460 1460 1460 1460 1460 1460 1461 1461 1460 1460 1460 1459 1459 1458 1457 1456 1455 1454 1453 1452 1451 1449 1448 1447 1446 1445 1444 1443 1442 1441 1440 1439 1438 1437 1436 1436 1435 1434 1433 1431 1431 1429 1428 1427 1426 1424 1423 1422 1421 1420 1418 1417 1416 1415 1414 1413 1413 1412 1411
1461 1461 1461 1461 1460 1460 1460 1460 1459 1459 1459 1459 1459 1459 1459 1459 1459 1459 1458 1458 1458 1458 1457 1456 1455 1454 1453 1451 1451 1449 1448 1447 1446 1445 1444 1442 1441 1441 1440 1439 1438 1437 1436 1435 1435 1434 1433 1432 1431 1430 1428 1427 1426 1424 1423 1422 1421 1420 1419 1417 1416 1415 1413 1411 1410 1410 1409 1408 1408
1460 1460 1459 1459 1459 1459 1459 1458 1458 1458 1458 1458 1458 1458 1458 1458 1457 1457 1457 1456 1456 1456 1455 1454 1453 1451 1451 1449 1448 1447 1446 1445 1444 1443 1442 1441 1440 1439 1438 1437 1436 1435 1434 1433 1433 1432 1431 1430 1429 1428 1426 1425 1423 1422 1421 1419 1418 1417 1416 1415 1413 1412 1410 1409 1407 1406 1405 1405 1404
1458 1458 1458 1458 1458 1458 1457 1457 1457 1457 1457 1458 1457 1457 1457 1456 1456 1456 1455 1455 1454 1454 1452 1451 1451 1450 1448 1447 1446 1445 1444 1443 1442 1441 1440 1439 1438 1437 1436 1435 1434 1433 1432 1431 1431 1430 1429 1427 1426 1425 1424 1423 1421 1420 1418 1417 1415 1414 1413 1412 1410 1409 1407 1406 1404 1403 1402 1401 1401
1457 1457 1457 1457 1457 1457 1457 1457 1457 1457 1457 1457 1456 1456 1455 1455 1454 1454 1454 1453 1452 1451 1450 1449 1448 1447 1446 1445 1444 1443 1442 1441 1440 1439 1438 1437 1436 1435 1434 1433 1432 1431 1430 1429 1428 1427 1426 1425 1424 1423 1421 1420 1419 1417 1416 1414 1413 1411 1410 1408 1407 1405 1404 1403 1401 1400 1399 1398 1398
1456 1456 1456 1456 1456 1456 1456 1456 1456 1456 1456 1455 1455 1454 1454 1453 1453 1452 1452 1451 1450 1449 1448 1447 1446 1445 1444 1443 1442 1441 1440 1439 1438 1437 1436 1435 1434 1433 1432 1431 1430 1429 1428 1427 1426 1425 1424 1422 1421 1420 1419 1417 1416 1415 1413 1411 1410 1408 1406 1405 1403 1402 1401 1400 1399 1398 1397 1396 1396
1455 1455 1455 1455 1455 1455 1455 1455 1455 1455 1455 1454 1453 1453 1452 1452 1451 1451 1450 1449 1448 1447 1446 1446 1445 1443 1442 1441 1440 1439 1438 1437 1436 1435 1434 1433 1432 1431 1430 1429 1427 1426 1426 1425 1423 1422 1421 1420 1418 1417 1416 1415 1413 1411 1410 1408 1406 1405 1403 1402 1401 1400 1399 1398 1397 1396 1395 1394 1393
1454 1454 1454 1454 1454 1454 1454 1454 1454 1454 1453 1453 1452 1451 1451 1450 1450 1449 1448 1447 1446 1446 1444 1443 1442 1441 1440 1439 1438 1437 1436 1435 1434 1433 1432 1431 1430 1429 1427 1426 1425 1424 1423 1422 1421 1420 1418 1417 1416 1414 1413 1412 1410 1408 1406 1405 1403 1402 1401 1399 1398 1397 1397 1396 1395 1394 1393 1392 1391
1454 1453 1453 1453 1453 1453 1453 1453 1452 1452 1452 1451 1451 1450 1449 1449 1448 1447 1446 1446 1445 1444 1443 1442 1441 1440 1439 1438 1436 1436 1435 1433 1432 1431 1430 1429 1428 1426 1425 1424 1423 1422 1421 1420 1418 1417 1416 1414 1413 1411 1410 1408 1406 1405 1403 1401 1401 1399 1398 1397 1396 1396 1395 1394 1393 1391 1391 1390 1389
1453 1452 1452 1452 1452 1451 1451 1451 1451 1451 1450 1450 1449 1448 1447 1446 1446 1445 1444 1443 1442 1442 1441 1440 1439 1438 1437 1436 1435 1434 1433 1431 1430 1429 1428 1427 1426 1425 1423 1422 1421 1420 1419 1417 1416 1415 1413 1412 1410 1409 1407 1405 1403 1401 1400 1399 1398 1397 1396 1395 1394 1393 1392 1391 1390 1389 1388 1387 1386
1452 1451 1451 1451 1451 1451 1451 1450 1450 1449 1448 1447 1447 1446 1445 1444 1444 1443 1442 1441 1441 1440 1439 1438 1437 1436 1436 1434 1433 1432 1431 1430 1428 1427 1426 1425 1424 1422 1421 1420 1418 1417 1416 1415 1413 1412 1411 1409 1407 1406 1404 1402 1401 1399 1398 1397 1396 1395 1394 1393 1391 1391 1390 1389 1387 1386 1385 1385 1384
1451 1451 1451 1450 1450 1450 1449 1449 1448 1447 1446 1446 1445 1444 1443 1442 1442 1441 1440 1439 1439 1438 1437 1436 1436 1435 1434 1432 1431 1430 1429 1428 1426 1425 1424 1423 1422 1420 1419 1417 1416 1415 1414 1412 1411 1410 1408 1406 1405 1403 1401 1400 1398 1397 1396 1395 1394 1392 1391 1391 1389 1388 1387 1386 1385 1383 1383 1382 1381
1450 1450 1449 1449 1448 1448 1447 1447 1446 1445 1444 1443 1442 1442 1441 1441 1440 1439 1438 1438 1437 1436 1436 1435 1434 1433 1432 1431 1429 1428 1427 1426 1425 1423 1422 1421 1420 1418 1416 1415 1414 1412 1411 1410 1409 1407 1406 1404 1402 1400 1399 1397 1396 1395 1394 1393 1392 1391 1390 1388 1387 1386 1385 1383 1382 1381 1380 1380 1379
1449 1448 1448 1447 1446 1446 1446 1445 1444 1443 1442 1441 1441 1441 1440 1439 1438 1438 1437 1437 1436 1435 1434 1433 1432 1431 1430 1429 1427 1426 1425 1424 1423 1422 1420 1419 1417 1416 1414 1413 1411 1410 1409 1408 1406 1405 1403 1401 1399 1398 1397 1396 1395 1394 1392 1391 1390 1389 1388 1386 1385 1384 1382 1381 1380 1379 1379 1378 1378
1447 1446 1446 1446 1445 1444 1443 1442 1441 1441 1441 1440 1440 1439 1439 1438 1437 1436 1436 1435 1435 1433 1432 1431 1430 1429 1428 1427 1426 1424 1423 1422 1421 1420 1418 1417 1416 1414 1412 1411 1409 1407 1406 1406 1404 1402 1401 1399 1397 1396 1396 1395 1393 1392 1391 1390 1388 1387 1386 1385 1384 1382 1381 1380 1379 1378 1377 1376 1376
1446 1445 1444 1444 1443 1442 1441 1441 1441 1441 1440 1440 1439 1438 1437 1437 1436 1435 1435 1434 1433 1432 1431 1429 1428 1427 1426 1425 1424 1422 1421 1420 1419 1418 1416 1415 1413 1412 1410 1409 1407 1406 1404 1403 1402 1400 1398 1397 1396 1395 1394 1393 1392 1391 1390 1388 1387 1386 1385 1383 1382 1380 1378 1377 1376 1376 1375 1374 1373
1444 1444 1443 1443 1442 1442 1441 1441 1441 1440 1440 1439 1438 1437 1436 1435 1435 1434 1433 1432 1431 1430 1429 1428 1426 1425 1424 1423 1422 1421 1420 1418 1417 1416 1415 1413 1411 1410 1408 1407 1405 1403 1402 1401 1400 1398 1396 1395 1394 1393 1393 1392 1391 1389 1388 1387 1386 1384 1382 1381 1379 1377 1376 1375 1374 1373 1372 1371 1370